カタログに戻る

FREGAT DEB

運用中UNKNOWN
NORAD 46006·DEBRIS·🇷🇺 Russia

打ち上げ Jul 18, 2011 から Baikonur Cosmodrome

Loading…

次のパス (今後24時間)

TLE

最新Source: Space-Track

元期: Sep 14, 2026, 04:35 UTC

1 46006U 11037HH  26257.19107571  .00011190  00000-0  65397-3 0  9996
2 46006  51.3970 188.4528 1575418 141.3312 231.1679 12.21694127261716

AllMySatでFREGAT DEBをリアルタイム追跡

Download on the App Store